�N����,����,�~����,�C��,���x,�C��,����,���ϕ���,�ő�u�ԕ���,�ő厞����,���˗�,�I�_���x,�n�����x,�ő啗���N��,DTYPE
"17/07/10","00:10",0.0,22.4,95.8,1004.3,342.1,0.5,1.1,333.5,0.00,21.7,24.6,"00:04:40",1
"17/07/10","00:20",0.0,22.5,95.7,1004.5,284.9,0.5,0.8,336.5,0.00,21.8,24.6,"00:12:24",1
"17/07/10","00:30",0.0,22.4,95.7,1004.5,294.9,0.5,0.9,255.3,0.00,21.7,24.6,"00:20:16",1
"17/07/10","00:40",0.0,22.5,95.8,1004.3,347.7,0.2,1.0,351.4,0.00,21.8,24.6,"00:38:24",1
"17/07/10","00:50",0.0,22.4,95.8,1004.5,351.2,0.5,1.2,339.5,0.00,21.7,24.4,"00:48:48",1
"17/07/10","01:00",0.0,22.4,95.9,1004.3,287.1,0.6,1.1,319.4,0.00,21.8,24.4,"00:50:32",1
"17/07/10","01:10",0.0,22.4,95.9,1004.1,286.0,0.3,1.0,337.1,0.00,21.8,24.5,"01:00:48",1
"17/07/10","01:20",0.0,22.5,96.0,1004.3,303.9,0.3,0.6,255.1,0.00,21.9,24.5,"01:12:24",1
"17/07/10","01:30",0.0,22.5,96.0,1004.1,12.5,0.3,1.0,303.5,0.00,21.9,24.5,"01:28:00",1
"17/07/10","01:40",0.0,22.5,96.0,1003.4,350.3,0.5,1.2,340.2,0.00,21.9,24.4,"01:30:08",1
"17/07/10","01:50",0.0,22.5,96.0,1003.8,301.0,0.2,0.6,329.9,0.00,21.9,24.3,"01:40:16",1
"17/07/10","02:00",0.0,22.4,96.1,1003.8,184.1,0.1,0.5,157.1,0.00,21.8,24.3,"01:57:52",1
"17/07/10","02:10",0.0,22.5,96.2,1004.1,306.7,0.7,1.2,341.3,0.00,21.9,24.5,"02:00:02",1
"17/07/10","02:20",0.0,22.5,96.1,1003.8,346.1,0.7,1.2,342.5,0.00,21.9,24.2,"02:11:20",1
"17/07/10","02:30",0.0,22.5,96.2,1003.8,293.6,0.5,1.0,333.9,0.00,21.9,24.3,"02:23:12",1
"17/07/10","02:40",0.0,22.6,96.2,1004.1,327.6,0.2,0.6,340.9,0.00,22.0,24.6,"02:34:56",1
"17/07/10","02:50",0.0,22.6,96.2,1003.8,272.7,0.3,0.6,236.2,0.00,22.0,24.5,"02:41:36",1
"17/07/10","03:00",0.0,22.5,96.2,1003.8,301.5,0.5,0.9,313.9,0.00,21.9,24.4,"02:51:52",1
"17/07/10","03:10",0.0,22.4,96.2,1003.8,318.5,0.1,0.4,246.7,0.00,21.8,24.3,"03:08:56",1
"17/07/10","03:20",0.0,22.4,96.3,1003.8,276.7,0.2,0.6,287.9,0.00,21.8,24.3,"03:17:28",1
"17/07/10","03:30",0.0,22.5,96.4,1003.6,329.2,0.2,0.6,319.5,0.00,21.9,24.2,"03:27:44",1
"17/07/10","03:40",0.0,22.6,96.4,1003.8,318.5,0.7,1.1,339.2,0.00,22.0,24.4,"03:32:00",1
"17/07/10","03:50",0.0,22.6,96.5,1003.8,322.6,0.6,0.9,326.4,0.00,22.1,24.3,"03:43:04",1
"17/07/10","04:00",0.0,22.6,96.4,1003.4,282.7,0.6,1.2,330.0,0.00,22.0,24.1,"03:50:08",1
"17/07/10","04:10",0.0,22.6,96.4,1003.8,291.7,0.3,0.6,310.5,0.00,22.0,24.2,"04:06:40",1
"17/07/10","04:20",0.0,22.6,96.5,1003.8,288.6,0.6,1.1,340.6,0.00,22.1,24.2,"04:12:32",1
"17/07/10","04:30",0.0,22.7,96.5,1003.6,279.2,0.6,1.1,342.9,0.00,22.2,24.3,"04:29:12",1
"17/07/10","04:40",0.0,22.8,96.5,1003.8,342.4,0.8,2.1,336.3,0.00,22.3,24.2,"04:39:06",1
"17/07/10","04:50",0.0,22.8,96.5,1003.6,299.7,1.0,1.8,305.1,0.00,22.3,24.2,"04:44:40",1
"17/07/10","05:00",0.0,22.9,96.5,1004.1,277.2,1.7,2.2,248.1,0.00,22.4,24.0,"04:53:52",1
"17/07/10","05:10",0.0,22.9,96.5,1004.1,288.4,1.5,2.1,310.0,0.00,22.4,24.2,"05:00:02",1
"17/07/10","05:20",0.0,22.9,96.5,1004.3,302.9,2.3,3.2,318.5,0.00,22.4,24.2,"05:11:12",1
"17/07/10","05:30",0.0,23.0,96.6,1004.3,290.7,1.8,2.4,286.7,0.00,22.5,24.1,"05:21:12",1
"17/07/10","05:40",0.0,23.1,96.6,1004.3,299.0,1.3,1.9,316.8,0.00,22.6,24.0,"05:39:52",1
"17/07/10","05:50",0.0,23.1,96.6,1004.8,308.8,1.5,2.6,317.6,0.00,22.6,24.1,"05:42:32",1
"17/07/10","06:00",0.0,23.2,96.6,1004.5,292.8,1.7,2.4,313.6,0.00,22.7,24.1,"05:50:02",1
"17/07/10","06:10",0.0,23.2,96.6,1004.5,309.5,1.7,2.7,310.4,0.00,22.7,24.0,"06:00:08",1
"17/07/10","06:20",0.0,23.3,96.6,1004.5,316.3,2.2,2.8,318.3,0.00,22.8,24.0,"06:12:32",1
"17/07/10","06:30",0.0,23.4,96.6,1004.8,298.2,2.2,3.5,323.7,0.00,22.9,24.4,"06:20:48",1
"17/07/10","06:40",0.0,23.4,96.6,1004.8,286.1,1.5,1.9,283.0,0.00,22.9,24.1,"06:30:08",1
"17/07/10","06:50",0.0,23.5,96.6,1004.8,301.0,1.7,2.1,309.7,0.00,23.0,24.1,"06:42:24",1
"17/07/10","07:00",0.0,23.6,96.5,1004.8,302.4,1.6,2.2,310.8,0.02,23.1,24.3,"06:56:08",1
"17/07/10","07:10",0.0,23.9,96.6,1005.0,313.0,1.5,2.5,318.3,0.04,23.4,24.2,"07:04:08",1
"17/07/10","07:20",0.0,24.0,96.3,1004.8,285.5,1.1,1.6,266.0,0.05,23.4,24.2,"07:13:52",1
"17/07/10","07:30",0.0,24.1,96.3,1004.8,285.5,1.2,1.8,274.7,0.05,23.5,24.2,"07:27:20",1
"17/07/10","07:40",0.0,24.3,96.2,1005.0,312.8,1.5,2.2,324.2,0.06,23.7,24.2,"07:32:24",1
"17/07/10","07:50",0.0,24.2,95.8,1004.3,312.9,1.0,2.2,326.2,0.09,23.5,24.4,"07:48:16",1
"17/07/10","08:00",0.0,24.7,95.2,1004.5,319.1,1.3,2.7,323.3,0.12,23.9,24.1,"07:55:52",1
"17/07/10","08:10",0.0,25.6,92.5,1005.0,293.0,1.0,1.6,312.1,0.24,24.3,24.6,"08:00:32",1
"17/07/10","08:20",0.0,26.7,90.0,1004.8,267.4,0.5,1.3,316.6,0.25,25.0,24.7,"08:18:32",1
"17/07/10","08:30",0.0,26.3,87.5,1004.3,273.9,0.7,1.2,249.5,0.16,24.1,24.6,"08:21:52",1
"17/07/10","08:40",0.0,26.7,86.8,1004.5,291.6,1.0,1.7,309.5,0.17,24.4,24.7,"08:31:36",1
"17/07/10","08:50",0.0,26.6,86.4,1004.1,301.7,0.7,1.2,313.5,0.12,24.2,24.7,"08:46:00",1
"17/07/10","09:00",0.0,26.6,86.9,1004.3,328.5,1.2,2.6,323.3,0.14,24.3,25.0,"08:59:12",1
"17/07/10","09:10",0.0,27.1,86.6,1004.5,327.0,1.6,2.5,334.7,0.21,24.7,24.9,"09:00:08",1
"17/07/10","09:20",0.0,28.1,83.9,1004.3,306.2,0.8,1.9,340.7,0.24,25.2,25.2,"09:14:16",1
"17/07/10","09:30",0.0,27.9,80.8,1004.3,248.8,0.6,1.4,240.6,0.23,24.3,25.4,"09:29:20",1
"17/07/10","09:40",0.0,28.7,77.8,1003.6,262.4,0.6,1.2,187.2,0.35,24.5,25.4,"09:34:24",1
"17/07/10","09:50",0.0,29.1,78.4,1004.3,346.2,0.7,2.2,337.7,0.35,25.0,25.4,"09:43:12",1
"17/07/10","10:00",0.0,29.0,77.8,1004.8,9.4,1.1,2.4,353.2,0.34,24.8,25.6,"09:50:56",1
"17/07/10","10:10",0.0,29.3,76.3,1005.0,266.0,0.5,1.6,313.3,0.27,24.7,25.9,"10:04:40",1
"17/07/10","10:20",0.0,29.4,73.8,1005.0,324.5,0.6,1.8,339.5,0.28,24.3,25.8,"10:15:28",1
"17/07/10","10:30",0.0,29.6,74.7,1005.2,275.7,0.7,1.9,331.0,0.35,24.7,25.9,"10:22:00",1
"17/07/10","10:40",0.0,29.3,75.1,1005.5,220.7,0.8,2.5,234.5,0.26,24.5,26.2,"10:36:32",1
"17/07/10","10:50",0.0,29.9,72.1,1005.0,203.6,1.0,2.0,212.3,0.43,24.4,26.3,"10:41:44",1
"17/07/10","11:00",0.0,30.7,73.5,1005.5,183.3,1.0,2.9,185.1,0.46,25.5,26.3,"10:52:24",1
"17/07/10","11:10",0.0,31.0,68.2,1005.7,150.3,0.8,1.9,112.0,0.55,24.5,26.5,"11:04:00",1
"17/07/10","11:20",0.0,30.1,72.2,1005.7,190.8,1.2,2.1,217.6,0.27,24.6,26.7,"11:16:24",1
"17/07/10","11:30",0.0,30.1,72.5,1005.5,186.7,1.1,2.1,203.8,0.30,24.6,26.7,"11:20:32",1
"17/07/10","11:40",0.0,30.7,72.1,1005.5,170.8,1.2,2.7,192.4,0.36,25.1,26.8,"11:30:16",1
"17/07/10","11:50",0.0,31.5,65.8,1005.5,177.1,1.1,2.5,168.5,0.54,24.4,27.1,"11:42:40",1
"17/07/10","12:00",0.0,31.1,65.1,1005.5,198.4,1.3,2.9,217.1,0.44,23.8,27.2,"11:54:24",1
"17/07/10","12:10",0.0,31.5,67.9,1005.7,200.7,0.8,2.0,181.6,0.45,24.9,27.4,"12:05:12",1
"17/07/10","12:20",0.0,31.6,66.4,1005.2,223.9,0.7,2.1,211.9,0.42,24.6,27.6,"12:17:12",1
"17/07/10","12:30",0.0,31.6,64.4,1005.2,229.4,0.8,2.5,220.9,0.43,24.1,27.7,"12:29:28",1
"17/07/10","12:40",0.0,32.4,62.6,1005.2,149.1,1.0,2.4,119.9,0.53,24.4,27.8,"12:33:20",1
"17/07/10","12:50",0.0,32.3,64.4,1005.7,174.4,1.0,2.4,194.1,0.48,24.8,27.9,"12:42:24",1
"17/07/10","13:00",0.0,31.8,62.4,1005.2,189.1,1.1,2.5,215.8,0.39,23.8,28.0,"12:55:32",1
"17/07/10","13:10",0.0,31.9,67.2,1005.2,157.8,1.0,2.2,179.0,0.28,25.1,28.2,"13:03:54",1
"17/07/10","13:20",0.0,31.7,65.1,1005.0,180.5,1.5,3.3,210.6,0.32,24.4,28.2,"13:14:48",1
"17/07/10","13:30",0.0,31.9,63.1,1005.0,135.9,1.0,2.0,158.5,0.29,24.0,28.3,"13:21:20",1
"17/07/10","13:40",0.0,31.9,64.6,1005.0,175.0,0.8,3.1,176.0,0.29,24.4,28.2,"13:31:28",1
"17/07/10","13:50",0.0,31.8,64.9,1004.8,224.6,0.6,1.2,226.8,0.25,24.4,28.2,"13:42:32",1
"17/07/10","14:00",0.0,31.9,63.9,1004.3,232.7,0.7,2.7,205.8,0.29,24.3,28.2,"13:53:52",1
"17/07/10","14:10",0.0,32.0,64.9,1004.5,359.2,0.5,1.6,198.3,0.26,24.6,28.3,"14:04:24",1
"17/07/10","14:20",0.0,31.8,64.7,1004.5,293.7,0.8,1.6,333.6,0.28,24.4,28.5,"14:12:24",1
"17/07/10","14:30",0.0,32.3,64.0,1004.5,357.1,0.8,1.9,357.3,0.29,24.7,28.5,"14:20:08",1
"17/07/10","14:40",0.0,32.4,62.4,1004.5,54.7,0.6,1.4,4.7,0.27,24.3,28.6,"14:37:20",1
"17/07/10","14:50",0.0,32.1,66.2,1004.3,213.6,0.6,2.5,212.7,0.22,25.0,28.4,"14:49:20",1
"17/07/10","15:00",0.0,32.2,63.3,1004.1,206.8,0.8,2.4,197.8,0.24,24.4,28.8,"14:50:48",1
"17/07/10","15:10",0.0,32.5,63.0,1004.3,196.8,0.7,2.5,225.7,0.27,24.6,28.5,"15:00:16",1
"17/07/10","15:20",0.0,32.1,62.0,1004.1,278.1,0.7,1.8,353.5,0.25,23.9,28.4,"15:11:44",1
"17/07/10","15:30",0.0,31.7,65.0,1003.8,357.8,0.6,1.7,358.7,0.12,24.3,28.7,"15:26:48",1
"17/07/10","15:40",0.0,32.6,62.9,1004.1,335.0,0.7,2.0,335.5,0.26,24.7,28.5,"15:37:28",1
"17/07/10","15:50",0.0,33.5,60.5,1003.6,185.7,0.7,1.8,224.9,0.37,24.8,28.7,"15:45:28",1
"17/07/10","16:00",0.0,33.1,62.7,1003.8,197.6,1.0,2.5,220.0,0.32,25.1,28.6,"15:56:16",1
"17/07/10","16:10",0.0,32.7,61.2,1004.1,152.0,0.7,1.4,226.0,0.20,24.3,28.8,"16:00:08",1
"17/07/10","16:20",0.0,32.2,61.7,1003.8,180.1,1.0,3.5,225.7,0.16,24.0,28.8,"16:19:28",1
"17/07/10","16:30",0.0,31.9,63.6,1003.8,213.2,1.3,2.2,188.3,0.13,24.2,28.9,"16:27:20",1
"17/07/10","16:40",0.0,31.5,64.5,1003.6,215.4,1.3,2.9,210.5,0.11,24.0,28.7,"16:33:28",1
"17/07/10","16:50",0.0,31.2,65.2,1003.4,205.3,1.6,3.1,222.7,0.09,23.9,28.5,"16:42:24",1
"17/07/10","17:00",0.0,31.3,66.4,1002.9,205.0,1.5,3.3,226.8,0.07,24.3,28.8,"16:57:04",1
"17/07/10","17:10",0.0,31.4,65.9,1002.9,207.4,1.6,3.2,224.8,0.09,24.3,28.6,"17:05:52",1
"17/07/10","17:20",0.0,31.6,64.8,1002.9,200.9,1.2,3.7,226.8,0.11,24.2,28.6,"17:10:16",1
"17/07/10","17:30",0.0,31.4,65.1,1003.1,218.1,1.7,3.1,222.9,0.11,24.1,28.7,"17:23:52",1
"17/07/10","17:40",0.0,31.3,66.2,1003.4,199.8,1.1,2.4,232.0,0.10,24.3,28.6,"17:30:56",1
"17/07/10","17:50",0.0,31.3,65.2,1003.1,184.4,1.5,3.3,225.3,0.09,24.0,28.7,"17:49:52",1
"17/07/10","18:00",0.0,31.4,66.6,1003.1,198.0,1.8,4.3,227.3,0.08,24.5,28.5,"17:52:08",1
"17/07/10","18:10",0.0,31.4,68.1,1003.4,199.7,1.1,2.1,153.2,0.07,24.8,28.4,"18:02:56",1
"17/07/10","18:20",0.0,31.6,66.5,1003.6,241.6,1.0,2.1,222.3,0.07,24.6,28.4,"18:11:04",1
"17/07/10","18:30",0.0,32.0,64.9,1003.8,172.1,0.6,2.0,119.9,0.07,24.6,28.4,"18:28:48",1
"17/07/10","18:40",0.0,31.9,63.4,1004.3,126.6,0.6,1.8,173.8,0.07,24.1,28.2,"18:34:48",1
"17/07/10","18:50",0.0,31.5,65.2,1003.8,192.0,0.6,1.7,122.6,0.04,24.2,28.3,"18:49:52",1
"17/07/10","19:00",0.0,30.7,67.9,1003.6,49.9,1.2,2.2,348.2,0.01,24.1,28.1,"18:53:36",1
"17/07/10","19:10",0.0,30.0,70.6,1003.4,55.2,1.1,2.1,58.5,0.00,24.1,28.1,"19:03:04",1
"17/07/10","19:20",0.0,29.5,72.2,1002.9,76.8,0.8,2.7,45.6,0.00,24.0,28.1,"19:19:04",1
"17/07/10","19:30",0.0,29.0,73.9,1002.9,75.8,0.7,2.7,38.7,0.00,23.9,27.9,"19:22:40",1
"17/07/10","19:40",0.0,28.7,75.2,1002.6,68.3,0.5,1.6,131.8,0.00,23.9,27.9,"19:36:08",1
"17/07/10","19:50",0.0,28.4,75.7,1002.9,353.1,0.5,1.8,338.0,0.00,23.7,27.7,"19:46:24",1
"17/07/10","20:00",0.0,28.4,76.5,1003.4,350.7,0.8,2.2,356.2,0.00,23.9,27.9,"19:55:28",1
"17/07/10","20:10",0.0,28.2,79.0,1003.4,294.7,1.1,1.8,313.9,0.00,24.3,27.6,"20:06:12",1
"17/07/10","20:20",0.0,27.9,80.7,1003.4,314.7,1.2,2.2,333.2,0.00,24.3,27.7,"20:15:36",1
"17/07/10","20:30",0.0,27.7,81.1,1003.8,306.2,1.1,2.1,321.6,0.00,24.2,27.6,"20:20:40",1
"17/07/10","20:40",0.0,27.7,81.9,1003.8,331.3,0.8,1.9,330.0,0.00,24.4,27.6,"20:37:28",1
"17/07/10","20:50",0.0,27.4,82.5,1004.1,308.1,1.1,2.1,320.2,0.00,24.2,27.5,"20:41:36",1
"17/07/10","21:00",0.0,27.1,83.6,1003.8,310.5,1.5,2.1,307.3,0.00,24.1,27.5,"20:52:00",1
"17/07/10","21:10",0.0,26.9,84.5,1004.3,312.8,1.1,1.8,326.5,0.00,24.1,27.4,"21:03:44",1
"17/07/10","21:20",0.0,26.6,85.3,1004.5,300.5,1.2,1.6,326.0,0.00,24.0,27.4,"21:11:20",1
"17/07/10","21:30",0.0,26.4,86.2,1004.8,305.4,1.2,1.7,318.0,0.00,23.9,27.2,"21:29:20",1
"17/07/10","21:40",0.0,26.2,86.9,1004.5,331.1,1.7,2.2,337.2,0.00,23.9,27.2,"21:32:32",1
"17/07/10","21:50",0.0,26.0,87.4,1004.8,311.6,1.6,2.5,334.3,0.00,23.8,27.2,"21:40:08",1
"17/07/10","22:00",0.0,25.8,88.0,1004.8,306.0,1.2,2.1,338.4,0.00,23.7,26.9,"21:59:12",1
"17/07/10","22:10",0.0,25.8,88.4,1004.5,314.3,1.6,2.0,333.0,0.00,23.8,26.9,"22:07:44",1
"17/07/10","22:20",0.0,25.7,88.6,1005.5,321.2,1.8,3.1,328.8,0.00,23.7,26.9,"22:14:48",1
"17/07/10","22:30",0.0,25.7,89.0,1005.2,316.5,1.2,1.7,327.1,0.00,23.8,27.0,"22:20:24",1
"17/07/10","22:40",0.0,25.6,89.1,1005.5,295.8,1.1,1.9,316.9,0.00,23.7,26.8,"22:34:00",1
"17/07/10","22:50",0.0,25.6,89.1,1005.2,272.3,1.1,1.6,251.9,0.00,23.7,26.7,"22:41:12",1
"17/07/10","23:00",0.0,25.6,89.1,1005.2,298.7,1.1,1.7,321.6,0.00,23.7,26.7,"22:58:16",1
"17/07/10","23:10",0.0,25.5,89.6,1005.2,323.5,1.3,2.0,324.7,0.00,23.7,26.7,"23:01:44",1
"17/07/10","23:20",0.0,25.3,89.9,1005.0,320.2,0.8,1.4,322.6,0.00,23.6,26.6,"23:12:16",1
"17/07/10","23:30",0.0,25.1,90.2,1005.0,289.2,1.0,1.3,315.0,0.00,23.4,26.5,"23:20:24",1
"17/07/10","23:40",0.0,24.9,90.7,1005.0,304.3,1.0,1.3,318.4,0.00,23.3,26.4,"23:32:16",1
"17/07/10","23:50",0.0,24.8,91.0,1005.2,317.9,1.8,2.2,318.6,0.00,23.3,26.6,"23:44:56",1
"17/07/10","24:00",0.0,24.7,91.3,1005.7,317.9,0.8,1.8,322.0,0.00,23.2,26.3,"23:51:12",1
